Regional Weather Roundup
Issued by NWS Huntsville, AL

Home | Current Version | Previous Version | Text Only | Print | Product List | Glossary On
Versions: 1 2 3 4 5 6 7 8 9 10 11 12 13 14 15 16 17 18 19 20 21 22 23 24 25 26 27 28
000
ASUS44 KHUN 281310
RWRHUN

WEATHER ROUNDUP FOR THE TENNESSEE VALLEY
NATIONAL WEATHER SERVICE HUNTSVILLE AL
800 AM CDT WED JUN 28 2017

ALZ001>004-281400-
NORTHWEST ALABAMA

CITY           SKY/WX    TMP DP  RH WIND       PRES   REMARKS
COURTLAND HCN    N/A     66 N/A N/A CALM        N/A
RUSSELLVILLE     N/A     70 N/A N/A MISG        N/A
SHOALS AIRPORT SUNNY     70  61  73 E3        30.15R
SHOALS TVA RES   N/A     68 N/A N/A MISG        N/A
$$

ALZ005>007-016-281400-
NORTH CENTRAL ALABAMA

CITY           SKY/WX    TMP DP  RH WIND       PRES   REMARKS
CULLMAN AG STN   N/A     68 N/A N/A CALM        N/A
DECATUR AP     SUNNY     70  60  70 NE6       30.15R
HUNTSVILLE AP  MOSUNNY   72  60  66 E6        30.15R
MERIDIANVILLE  SUNNY     66  57  72 CALM      30.16R
REDSTONE ARSN  SUNNY     72  61  69 NE5       30.14R
VINEMONT AP    FAIR      71  55  56 E5        30.16R
$$

ALZ008>010-281400-
NORTHEAST ALABAMA

CITY           SKY/WX    TMP DP  RH WIND       PRES   REMARKS
ALBERTVILLE    SUNNY     70  61  73 CALM      30.14R
FORT PAYNE     SUNNY     66  55  68 CALM      30.15R
SCOTTSBORO AP  SUNNY     66  59  77 NE9       30.19R
SCOTTSBORO HCN   N/A     63 N/A N/A MISG        N/A
VALLEY HEAD      N/A     64 N/A N/A MISG        N/A
$$

TNZ076-096-097-281400-
SOUTHEASTERN MIDDLE TENNESSEE

CITY           SKY/WX    TMP DP  RH WIND       PRES   REMARKS
TULLAHOMA      SUNNY     66  55  68 CALM      30.18R
WINCHESTER     SUNNY     70  57  64 E3        30.17R
$$

...SURROUNDING SITES...

CITY           SKY/WX    TMP DP  RH WIND       PRES   REMARKS
ATLANTA        PTSUNNY   72  60  66 E6        30.14S
ANNISTON       SUNNY     71  58  63 NE3       30.13R
BIRMINGHAM     PTSUNNY   73  55  53 E3        30.14R
CHATTANOOGA    MOSUNNY   67  60  78 N7        30.19R
CORINTH        FAIR      70  61  73 E3        30.11
DALTON         SUNNY     63  61  94 N3        30.18R
GADSDEN        SUNNY     68  62  81 NE8       30.15R
GOLDEN TRNGL   SUNNY     72  59  64 SE7       30.06R
JACKSON TN     SUNNY     71  62  73 SE7       30.09F
MEMPHIS        MOSUNNY   75  63  66 S10       30.07R
NASHVILLE      MOSUNNY   68  59  73 CALM      30.16S
OXFORD MS      FAIR      72  61  68 SE9       30.11S
ROME           SUNNY     67  60  78 CALM      30.15R
SAVANNAH       SUNNY     68  61  77 CALM      30.11S
SELMER         SUNNY     70  63  78 SE6       30.11S
TUPELO         SUNNY     74  59  59 E6        30.10R
TUSCALOOSA     MOSUNNY   74  61  63 E6        30.10R
$$

...GULF COAST WEATHER...

CITY           SKY/WX    TMP DP  RH WIND       PRES   REMARKS
GULFPORT       MOSUNNY   77  71  82 NE5       30.01R
PASCAGOULA     CLOUDY    76  70  82 E5        30.02R
MOBILE         CLOUDY    76  70  82 E7        30.03S
GULF SHORES    CLOUDY    75  75 100 NE6       30.02R
PENSACOLA      CLOUDY    79  74  84 E9        30.02R
DESTIN         CLOUDY    80  80 100 E6        30.04R
PANAMA CITY    PTSUNNY   76  74  93 CALM      30.04R
APPALACHICOLA  CLOUDY    76  76 100 NE8       30.04R
$$





USA.gov is the U.S. government's official web portal to all federal, state and local government web resources and services.